格洛纳斯-748 COSMOS 2110 [GLONASS]

导读

COSMOS 2110(又名格洛纳斯-748),是苏联解体前独联体CIS于1990年12月8日发射的第一代GLONASS全球导航卫星。它运行在中地球轨道,轨道倾角64.8度,轨道周期约675.7分钟,设计寿命约为5年,由俄罗斯列舍特涅夫卫星信息系统研制并运营。 该卫星主要服务于军事和民用领域,可提供全球高精度定位导航服务,与GPS、北斗等系统兼容,服役期间为俄罗斯及全球用户提供了关键导航支持,现已完成服役任务退役。

基本信息
目录编号:
21007
目录名称:
COSMOS 2110 (GLONASS)
国际标识:
1990-110B
轨道中心:
EARTH
卫星名称:
格洛纳斯-748
卫星全名:
格洛纳斯-748 COSMOS 2110 [GLONASS]
卫星状态:
在轨 (已飞行13015 天)
发射日期:
1990-12-08 UTC
国别 :
俄罗斯(独联体) (CIS)
星等 :
--
轨道信息
数据来源 国际轨道数据
星历时间: 2026-07-20T05:41:42+0800
轨道信息已过期8天
半长轴: 25508.073km
偏心率: 0.0042851
轨道倾角: 64.957°
近地点辐角 200.244°
升交点赤经 70.443°
平近点角 337.581°
近地点: 19020.631km
远地点: 19239.241km
周期: 675.735分钟
每日圈数: 2.131014
详细信息
平衡模式:
三轴稳定
覆盖范围:
全球
运营商:
列舍特涅夫卫星信息系统
运营商所在国:
俄罗斯
制造商(研发单位):
列舍特涅夫卫星信息系统
制造商所在国:
俄罗斯
使用方式:
暂无
卫星简介
格洛纳斯(GLONASS )是苏联/俄罗斯研制卫星导航系统。标准配置为24颗卫星,其中18颗卫星就能保证该系统为俄罗斯境内用户提供全部服务。该卫星已退役。
2D轨道图
3D轨道图
轨道高度分析图
轨道倾角分析图
轨道综合分析图
查看轨道综合分析图